Test TH sensor 06.10.2020 Measurements

Back to Overview

Timestamp Temperature Humidity
5/4/2026 5:45:05 PM 16,3 C 48.0%
5/4/2026 5:38:04 PM 16,1 C 49.0%
5/4/2026 5:31:01 PM 16,1 C 48.0%
5/4/2026 5:23:59 PM 16,2 C 49.0%
5/4/2026 5:16:57 PM 16,1 C 48.0%
5/4/2026 5:09:53 PM 16,1 C 50.0%
5/4/2026 5:02:51 PM 16,0 C 48.0%
5/4/2026 4:55:49 PM 15,8 C 48.0%
5/4/2026 4:48:45 PM 15,9 C 49.0%
5/4/2026 4:41:44 PM 15,9 C 48.0%
5/4/2026 4:34:41 PM 15,9 C 49.0%
5/4/2026 4:27:40 PM 16,1 C 48.0%
5/4/2026 4:20:37 PM 16,1 C 49.0%
5/4/2026 4:13:34 PM 16,1 C 48.0%
5/4/2026 4:06:32 PM 16,1 C 48.0%
5/4/2026 3:59:28 PM 16,0 C 48.0%
5/4/2026 3:52:27 PM 16,1 C 49.0%
5/4/2026 3:45:26 PM 15,9 C 49.0%
5/4/2026 3:38:24 PM 15,9 C 48.0%
5/4/2026 3:31:22 PM 15,6 C 50.0%
5/4/2026 3:24:19 PM 15,4 C 50.0%
5/4/2026 3:17:18 PM 15,2 C 50.0%
5/4/2026 3:10:22 PM 15,4 C 48.0%
5/4/2026 3:03:12 PM 15,5 C 48.0%
5/4/2026 2:56:16 PM 15,5 C 48.0%
5/4/2026 2:42:06 PM 15,3 C 48.0%
5/4/2026 2:35:04 PM 15,3 C 47.0%
5/4/2026 2:28:03 PM 15,4 C 46.0%
5/4/2026 2:21:00 PM 15,4 C 46.0%
5/4/2026 2:13:57 PM 15,2 C 45.0%
5/4/2026 2:06:54 PM 15,2 C 45.0%
5/4/2026 1:59:51 PM 15,2 C 45.0%
5/4/2026 1:52:48 PM 14,9 C 43.0%
5/4/2026 1:45:46 PM 15,0 C 43.0%
5/4/2026 1:38:42 PM 15,1 C 43.0%
5/4/2026 1:31:46 PM 14,9 C 43.0%
5/4/2026 1:24:37 PM 14,9 C 42.0%
5/4/2026 1:17:35 PM 14,7 C 42.0%
5/4/2026 1:10:33 PM 14,7 C 43.0%
5/4/2026 1:03:31 PM 14,5 C 43.0%
5/4/2026 12:56:30 PM 14,3 C 44.0%
5/4/2026 12:49:28 PM 14,1 C 45.0%
5/4/2026 12:42:26 PM 13,9 C 45.0%
5/4/2026 12:35:25 PM 13,6 C 45.0%
5/4/2026 12:28:22 PM 13,6 C 46.0%
5/4/2026 12:21:21 PM 13,3 C 46.0%
5/4/2026 12:14:25 PM 13,2 C 49.0%
5/4/2026 12:07:16 PM 13,0 C 47.0%
5/4/2026 12:00:15 PM 12,9 C 47.0%
5/4/2026 11:53:13 AM 12,9 C 46.0%
5/4/2026 11:46:09 AM 12,6 C 47.0%
5/4/2026 11:39:06 AM 12,6 C 48.0%
5/4/2026 11:32:02 AM 12,4 C 48.0%
5/4/2026 11:24:59 AM 12,2 C 49.0%
5/4/2026 11:17:57 AM 11,9 C 49.0%
5/4/2026 11:10:54 AM 11,9 C 49.0%
5/4/2026 11:03:54 AM 11,7 C 51.0%
5/4/2026 10:56:53 AM 11,6 C 50.0%
5/4/2026 10:49:57 AM 11,4 C 49.0%
5/4/2026 10:42:46 AM 11,3 C 50.0%
5/4/2026 10:35:45 AM 11,1 C 48.0%
5/4/2026 10:28:42 AM 11,0 C 48.0%
5/4/2026 10:21:39 AM 10,9 C 47.0%
5/4/2026 10:14:36 AM 10,9 C 49.0%
5/4/2026 10:07:33 AM 10,8 C 50.0%
5/4/2026 10:00:30 AM 10,6 C 51.0%
5/4/2026 9:53:26 AM 10,4 C 50.0%
5/4/2026 9:46:24 AM 10,5 C 52.0%
5/4/2026 9:39:20 AM 10,3 C 55.0%
5/4/2026 9:32:17 AM 9,9 C 55.0%
5/4/2026 9:25:14 AM 9,6 C 56.0%
5/4/2026 9:18:18 AM 9,3 C 57.0%
5/4/2026 9:11:06 AM 9,1 C 57.0%
5/4/2026 9:04:03 AM 8,8 C 58.0%
5/4/2026 8:57:00 AM 8,5 C 59.0%
5/4/2026 8:49:58 AM 8,2 C 59.0%
5/4/2026 8:42:54 AM 8,0 C 59.0%
5/4/2026 8:35:53 AM 7,8 C 60.0%
5/4/2026 8:28:50 AM 7,4 C 59.0%
5/4/2026 8:21:48 AM 7,2 C 60.0%
5/4/2026 8:14:47 AM 6,9 C 60.0%
5/4/2026 8:07:42 AM 6,7 C 61.0%
5/4/2026 8:00:41 AM 6,5 C 61.0%
5/4/2026 7:53:38 AM 6,4 C 61.0%
5/4/2026 7:46:35 AM 6,1 C 61.0%
5/4/2026 7:39:32 AM 5,8 C 61.0%
5/4/2026 7:32:30 AM 5,6 C 63.0%
5/4/2026 7:25:28 AM 5,5 C 63.0%
5/4/2026 7:18:23 AM 5,4 C 63.0%
5/4/2026 7:11:20 AM 5,3 C 63.0%
5/4/2026 7:04:17 AM 5,2 C 63.0%
5/4/2026 6:57:13 AM 5,1 C 63.0%
5/4/2026 6:50:11 AM 4,9 C 64.0%
5/4/2026 6:43:09 AM 4,9 C 64.0%
5/4/2026 6:36:13 AM 4,8 C 65.0%
5/4/2026 6:21:59 AM 4,7 C 66.0%
5/4/2026 6:14:57 AM 4,7 C 66.0%
5/4/2026 6:07:54 AM 4,6 C 67.0%
5/4/2026 6:00:58 AM 4,6 C 67.0%
5/4/2026 5:53:49 AM 4,6 C 67.0%
5/4/2026 5:46:46 AM 4,6 C 67.0%
5/4/2026 5:39:43 AM 4,6 C 67.0%
5/4/2026 5:32:41 AM 4,6 C 67.0%
5/4/2026 5:25:37 AM 4,6 C 67.0%
5/4/2026 5:18:34 AM 4,7 C 67.0%
5/4/2026 5:11:32 AM 4,7 C 67.0%
5/4/2026 5:04:29 AM 4,6 C 68.0%
5/4/2026 4:57:25 AM 4,6 C 68.0%
5/4/2026 4:50:23 AM 4,4 C 68.0%
5/4/2026 4:43:20 AM 4,5 C 68.0%
5/4/2026 4:36:16 AM 4,6 C 68.0%
5/4/2026 4:29:13 AM 4,7 C 68.0%
5/4/2026 4:22:11 AM 4,7 C 68.0%
5/4/2026 4:15:10 AM 4,7 C 68.0%
5/4/2026 4:08:07 AM 4,7 C 68.0%
5/4/2026 4:01:04 AM 4,8 C 68.0%
5/4/2026 3:54:03 AM 4,7 C 68.0%
5/4/2026 3:47:01 AM 4,7 C 68.0%
5/4/2026 3:40:05 AM 4,6 C 68.0%
5/4/2026 3:32:57 AM 4,6 C 68.0%
5/4/2026 3:25:56 AM 4,6 C 68.0%
5/4/2026 3:18:54 AM 4,6 C 68.0%
5/4/2026 3:11:51 AM 4,6 C 68.0%
5/4/2026 3:04:49 AM 4,5 C 68.0%
5/4/2026 2:57:45 AM 4,5 C 68.0%
5/4/2026 2:50:42 AM 4,6 C 68.0%
5/4/2026 2:43:40 AM 4,8 C 67.0%
5/4/2026 2:36:35 AM 4,7 C 67.0%
5/4/2026 2:29:32 AM 4,7 C 67.0%
5/4/2026 2:22:28 AM 4,6 C 68.0%
5/4/2026 2:15:32 AM 4,6 C 68.0%
5/4/2026 2:08:23 AM 4,8 C 68.0%
5/4/2026 2:01:21 AM 4,9 C 67.0%
5/4/2026 1:54:20 AM 4,9 C 66.0%
5/4/2026 1:47:24 AM 4,9 C 67.0%
5/4/2026 1:40:15 AM 5,1 C 66.0%
5/4/2026 1:33:12 AM 5,1 C 66.0%
5/4/2026 1:26:09 AM 5,2 C 66.0%
5/4/2026 1:19:08 AM 5,2 C 66.0%
5/4/2026 1:12:05 AM 5,2 C 66.0%
5/4/2026 1:05:03 AM 5,3 C 66.0%
5/4/2026 12:58:07 AM 5,4 C 66.0%
5/4/2026 12:36:53 AM 5,1 C 68.0%
5/4/2026 12:29:51 AM 5,1 C 68.0%
5/4/2026 12:22:48 AM 5,1 C 68.0%
5/4/2026 12:15:46 AM 5,0 C 68.0%
5/4/2026 12:08:46 AM 5,1 C 68.0%
5/4/2026 12:01:43 AM 5,1 C 68.0%